Weather Roundup
Issued by NWS Chicago, IL

Home | Current Version | Previous Version | Graphics & Text | Print | Product List | Glossary On
Versions: 1 2 3 4 5 6 7 8 9 10 11 12 13 14 15 16 17 18 19 20 21 22 23 24 25 26 27 28 29 30 31 32 33 34 35 36 37 38 39 40 41 42 43 44 45 46 47 48 49 50
000
NZUS59 KLOT 172300
HRRLOT

CHICAGO AREA WEATHER ROUNDUP
NATIONAL WEATHER SERVICE CHICAGO/ROMEOVILLE IL
600 PM CDT FRI APR 17 2015

NOTE: "FAIR" INDICATES FEW OR NO CLOUDS BELOW 12,000 FEET WITH NO
SIGNIFICANT WEATHER AND/OR OBSTRUCTIONS TO VISIBILITY.

* THESE STATIONS ARE NOT UNDER NWS QUALITY CONTROL. THEY ALSO MAY NOT
  REPORT WEATHER SUCH AS PRECIPITATION OR FOG.

ILZ005-006-012>014-019>023-180000-
NORTHEAST ILLINOIS

CITY           SKY/WX    TMP DP  RH WIND       PRES   REMARKS
OHARE          PTSUNNY   76  46  34 W13       29.98S
MIDWAY         NOT AVBL
AURORA         PTSUNNY   75  46  35 SW6       29.99F
WAUKEGAN       NOT AVBL
DUPAGE AIRPORT PTSUNNY   74  47  38 SW7       29.99S
WHEELING       CLOUDY    74  45  35 E6        30.00S
NORTHERLY IS     N/A     59  45  59 CALM        N/A
$$

WIZ051-052-058>065-066-070>072-180000-
SOUTHEAST WISCONSIN

CITY           SKY/WX    TMP DP  RH WIND       PRES   REMARKS
MILWAUKEE      PTSUNNY   59  40  49 NE7       30.01F
WAUKESHA       MOSUNNY   68  41  37 E12       30.01S
$$

INZ001>003-010>013-019-020-180000-
NORTHWEST INDIANA

CITY           SKY/WX    TMP DP  RH WIND       PRES   REMARKS
GARY*          PTSUNNY   73  36  25 E9        30.01S
MICHIGAN CITY* NOT AVBL
RENSSELAER*    NOT AVBL
$$

LMZ740>746-180000-
SOUTHERN LAKE MICHIGAN

STATION/POSITION TIME  SKY/WX   TEMP WIND        PRES    VSBY
                                AIR  DIR/SP/G
                 (UTC)          (F)  (DEG/KT/KT) (MB)    (MI)
HARRISON CRIB    2200            58  100/ 16/ 18   N/A
BURNHAM HARBOR   2200            59  120/  2/  6   N/A
CALUMET HARBOR   2200            61  100/  7/  9   N/A
BURNS HARBOR     2200            59   80/ 10/ 12 1016.6F
MICHIGAN CITY    2200            62   30/ 11/ 11   N/A
$$

ABBREVIATIONS USED IN REMARKS
   TC - TEMPERATURE IN CELSIUS
  WCI - WIND CHILL INDEX
   HX - HEAT INDEX
  VSB - VISIBILITY
$$


USA.gov is the U.S. government's official web portal to all federal, state and local government web resources and services.